User: anonymous   Login
Location: Bailey Volunteer Fire Department
(33.4359°N, 96.1680°W)
Time: 12:30:43
(UTC+00:00)
Language:

Cosmos 1825 Rocket - Orbit

View from above orbital plane
View from above orbital plane
View from above satellite
View from above satellite

Ground track
Ground track

The orbit is defined by the following mean orbital elements,

1 17567U          26040.29234039 +.00000000 +00000-0 +61409-4 0 00007
2 17567  82.5290 119.4537 0018131 359.7910   0.3296 14.86104999    03
Epoch (UTC): 09 February 2026 07:00:58
Eccentricity: 0.0018131
inclination: 82.5290°
perigee height: 597 km
apogee height: 623 km
right ascension of ascending node: 119.4537°
argument of perigee: 359.7910°
revolutions per day: 14.86104999
mean anomaly at epoch: 0.3296°

The dashed part of the orbit path shows where the satellite is in the earth's shadow,  

DLR